Precipitable_Water
0.27 0.18 0.19 0.16 0.19 0.21 0.18 0.19 0.19 0.22 0.22 0.21 0.20 0.18 0.13 0.15 0.17 0.16 0.15 0.22 0.22 0.19 0.17 0.14 0.16 0.18 0.17 0.15 0.23 0.43 0.41 0.33 0.33 0.37 0.49 0.68 0.67 0.63 0.65 0.66 0.73 0.76 0.79 0.89 0.95 0.97 1.02 1.07 1.13 1.19 1.19 1.19 1.28 1.37 1.30 1.31 1.30 1.36 1.38 1.38 1.31 1.31 1.29 1.22 1.11 1.11 1.22 1.07 0.98 0.94 0.94 0.88 0.84 0.84 0.87 0.92 0.93 0.93 0.93 0.91 0.90 0.91 0.88 0.89 0.91 1.01
0.27 0.19 0.21 0.21 0.20 0.24 0.22 0.19 0.22 0.25 0.24 0.22 0.20 0.18 0.16 0.15 0.16 0.16 0.15 0.26 0.27 0.21 0.20 0.19 0.17 0.17 0.19 0.20 0.20 0.38 0.46 0.36 0.35 0.40 0.57 0.65 0.67 0.58 0.64 0.67 0.72 0.79 0.85 0.90 0.91 0.97 1.01 1.06 1.10 1.14 1.18 1.17 1.19 1.33 1.26 1.12 1.26 1.37 1.38 1.31 1.29 1.23 1.21 1.11 1.04 1.18 1.25 1.07 1.00 0.95 0.90 0.89 0.84 0.75 0.84 0.82 0.89 0.86 0.83 0.81 0.81 0.83 0.86 0.84 0.86 0.81
0.21 0.18 0.23 0.25 0.25 0.28 0.27 0.24 0.24 0.25 0.23 0.21 0.18 0.17 0.16 0.16 0.18 0.19 0.18 0.25 0.27 0.22 0.19 0.22 0.20 0.19 0.21 0.22 0.26 0.48 0.48 0.41 0.39 0.41 0.59 0.60 0.64 0.62 0.66 0.71 0.75 0.71 0.76 0.82 0.89 0.94 1.01 1.04 1.07 1.09 1.10 1.19 1.27 1.25 1.21 1.20 1.22 1.24 1.21 1.26 1.28 1.20 1.12 1.05 1.03 1.18 1.26 1.11 1.06 1.02 0.95 0.92 0.87 0.96 0.95 0.89 0.79 0.79 0.76 0.73 0.75 0.79 0.80 0.84 0.81 0.79
0.19 0.17 0.23 0.28 0.29 0.29 0.27 0.26 0.23 0.22 0.21 0.19 0.16 0.16 0.15 0.17 0.15 0.16 0.23 0.25 0.25 0.22 0.18 0.21 0.23 0.24 0.25 0.25 0.34 0.52 0.49 0.44 0.44 0.44 0.57 0.65 0.65 0.62 0.66 0.72 0.68 0.63 0.72 0.77 0.84 0.92 0.98 1.04 1.07 1.09 1.10 1.17 1.23 1.23 1.17 1.17 1.19 1.15 1.18 1.22 1.23 1.17 1.08 1.12 1.17 1.24 1.29 1.16 1.11 1.07 1.06 1.03 1.00 0.89 0.83 0.77 0.78 0.71 0.71 0.73 0.79 0.80 0.85 0.86 0.84 0.82
0.20 0.26 0.25 0.26 0.29 0.27 0.23 0.22 0.19 0.17 0.15 0.17 0.18 0.16 0.17 0.17 0.18 0.16 0.23 0.28 0.27 0.25 0.22 0.28 0.27 0.24 0.23 0.26 0.29 0.41 0.48 0.48 0.50 0.50 0.58 0.70 0.72 0.72 0.74 0.73 0.72 0.72 0.76 0.78 0.83 0.92 0.99 1.03 1.09 1.11 1.16 1.20 1.17 1.24 1.18 1.14 1.15 1.13 1.18 1.23 1.18 1.09 1.17 1.23 1.15 1.28 1.27 1.13 1.08 1.06 1.01 0.94 0.81 0.74 0.72 0.70 0.72 0.76 0.71 0.71 0.74 0.76 0.81 0.82 0.81 0.79
0.24 0.29 0.30 0.27 0.28 0.23 0.19 0.19 0.18 0.18 0.16 0.16 0.17 0.19 0.19 0.21 0.21 0.20 0.27 0.29 0.27 0.23 0.22 0.19 0.15 0.17 0.25 0.28 0.26 0.41 0.46 0.49 0.55 0.55 0.61 0.70 0.70 0.72 0.69 0.66 0.70 0.76 0.84 0.83 0.85 0.92 1.03 1.08 1.14 1.18 1.20 1.19 1.24 1.22 1.17 1.17 1.20 1.16 1.22 1.16 1.08 1.16 1.18 1.08 1.11 1.32 1.20 1.09 0.99 0.88 0.78 0.66 0.67 0.68 0.73 0.74 0.66 0.68 0.73 0.72 0.72 0.76 0.81 0.83 0.81 0.82
0.24 0.31 0.28 0.25 0.23 0.21 0.18 0.18 0.22 0.18 0.17 0.17 0.17 0.16 0.20 0.26 0.23 0.22 0.25 0.26 0.23 0.19 0.26 0.23 0.14 0.15 0.26 0.31 0.30 0.42 0.44 0.46 0.53 0.53 0.59 0.67 0.69 0.70 0.63 0.68 0.69 0.75 0.81 0.89 0.97 1.03 1.10 1.13 1.14 1.25 1.21 1.27 1.31 1.31 1.20 1.21 1.23 1.23 1.23 1.15 1.11 1.19 1.18 1.23 1.25 1.22 1.09 0.96 0.88 0.79 0.75 0.76 0.76 0.76 0.80 0.81 0.84 0.79 0.71 0.71 0.71 0.71 0.79 0.80 0.80 0.83
0.22 0.28 0.27 0.21 0.20 0.19 0.18 0.17 0.22 0.20 0.16 0.17 0.22 0.20 0.18 0.24 0.26 0.26 0.25 0.25 0.22 0.26 0.35 0.29 0.20 0.18 0.24 0.29 0.32 0.38 0.38 0.38 0.45 0.50 0.53 0.64 0.73 0.66 0.71 0.69 0.73 0.79 0.84 0.86 0.94 1.09 1.05 1.03 1.00 1.00 1.05 1.13 1.16 1.21 1.18 1.23 1.21 1.28 1.26 1.18 1.22 1.27 1.28 1.26 1.26 1.11 1.04 0.94 0.87 0.84 0.83 0.82 0.83 0.82 0.75 0.78 0.77 0.76 0.75 0.69 0.66 0.67 0.76 0.82 0.81 0.81
0.20 0.21 0.21 0.19 0.20 0.19 0.18 0.19 0.23 0.21 0.15 0.21 0.28 0.26 0.18 0.19 0.23 0.23 0.22 0.23 0.21 0.24 0.25 0.27 0.24 0.20 0.25 0.32 0.35 0.38 0.33 0.33 0.43 0.51 0.50 0.50 0.67 0.74 0.77 0.72 0.80 0.79 0.83 0.90 1.01 1.11 1.03 0.83 0.88 0.99 1.07 1.17 1.13 1.15 1.18 1.25 1.32 1.33 1.32 1.24 1.21 1.23 1.21 1.24 1.13 1.11 1.10 0.99 0.93 0.93 0.86 0.85 0.86 0.76 0.74 0.74 0.73 0.73 0.73 0.73 0.76 0.77 0.78 0.82 0.83 0.84
0.24 0.21 0.22 0.20 0.19 0.19 0.22 0.25 0.25 0.22 0.18 0.27 0.34 0.31 0.26 0.23 0.23 0.23 0.21 0.20 0.24 0.22 0.21 0.26 0.23 0.18 0.21 0.30 0.35 0.41 0.35 0.35 0.47 0.49 0.56 0.60 0.67 0.75 0.74 0.75 0.77 0.87 0.93 1.05 1.03 1.04 0.97 0.90 0.86 0.98 1.14 1.20 1.24 1.26 1.29 1.33 1.25 1.23 1.23 1.14 1.14 1.09 1.14 1.17 1.16 1.14 1.15 1.05 1.05 1.02 0.92 0.86 0.73 0.71 0.70 0.72 0.70 0.68 0.71 0.70 0.70 0.70 0.73 0.76 0.79 0.80
0.28 0.25 0.25 0.21 0.19 0.27 0.28 0.28 0.27 0.22 0.22 0.35 0.31 0.28 0.25 0.24 0.23 0.23 0.23 0.24 0.25 0.20 0.23 0.26 0.25 0.20 0.18 0.32 0.36 0.35 0.35 0.43 0.52 0.48 0.50 0.63 0.73 0.78 0.83 0.78 0.79 0.82 0.95 1.01 0.99 1.04 1.00 1.03 1.00 1.01 1.05 1.13 1.15 1.17 1.14 1.22 1.15 1.16 1.18 1.12 1.08 1.06 1.09 1.14 1.12 1.08 1.07 1.15 1.09 1.03 0.93 0.82 0.71 0.69 0.70 0.69 0.67 0.67 0.66 0.65 0.68 0.74 0.76 0.79 0.76 0.74
0.26 0.29 0.24 0.24 0.27 0.28 0.31 0.29 0.28 0.25 0.23 0.26 0.29 0.24 0.22 0.20 0.21 0.21 0.19 0.22 0.20 0.19 0.23 0.24 0.26 0.25 0.19 0.26 0.30 0.33 0.40 0.49 0.46 0.46 0.48 0.56 0.65 0.71 0.75 0.80 0.79 0.82 0.93 0.99 0.97 0.95 1.02 1.02 1.01 1.02 1.05 1.08 1.13 1.18 1.16 1.12 1.12 1.11 1.11 1.15 1.04 1.02 1.02 1.03 1.07 1.11 1.10 1.11 1.13 1.05 0.95 0.84 0.78 0.71 0.70 0.68 0.68 0.69 0.68 0.69 0.71 0.76 0.77 0.76 0.73 0.68
0.22 0.23 0.23 0.23 0.26 0.27 0.27 0.23 0.21 0.20 0.24 0.25 0.27 0.24 0.19 0.19 0.18 0.16 0.18 0.16 0.17 0.18 0.24 0.26 0.27 0.26 0.22 0.30 0.40 0.37 0.46 0.57 0.54 0.49 0.50 0.56 0.55 0.62 0.70 0.76 0.85 0.89 0.96 0.95 0.93 0.94 0.98 1.00 0.99 0.98 1.01 1.01 1.07 1.08 1.17 1.22 1.23 1.17 1.10 1.07 1.05 1.06 1.04 1.03 1.00 1.01 1.05 1.06 1.04 1.02 0.95 0.92 0.83 0.77 0.74 0.73 0.72 0.73 0.71 0.71 0.71 0.73 0.74 0.72 0.68 0.64
0.20 0.24 0.23 0.23 0.24 0.24 0.25 0.19 0.22 0.17 0.19 0.21 0.22 0.22 0.19 0.17 0.18 0.15 0.17 0.17 0.18 0.21 0.29 0.28 0.30 0.24 0.28 0.34 0.47 0.48 0.51 0.55 0.63 0.63 0.54 0.50 0.50 0.54 0.61 0.72 0.88 0.93 0.98 0.98 0.93 0.92 0.97 1.03 1.01 0.99 1.01 1.03 1.02 1.06 1.10 1.11 1.14 1.19 1.15 1.05 0.99 1.06 1.13 1.12 1.08 1.06 1.06 1.05 1.04 1.07 1.05 0.97 0.89 0.85 0.80 0.78 0.75 0.72 0.73 0.74 0.75 0.76 0.74 0.73 0.66 0.61
0.18 0.18 0.20 0.22 0.21 0.25 0.22 0.23 0.27 0.24 0.21 0.19 0.23 0.24 0.24 0.22 0.19 0.16 0.16 0.15 0.16 0.20 0.26 0.29 0.27 0.23 0.22 0.35 0.42 0.50 0.55 0.54 0.57 0.57 0.60 0.57 0.55 0.61 0.67 0.72 0.86 0.90 0.93 0.92 0.90 0.90 0.94 1.01 1.05 1.02 1.05 1.04 1.05 1.06 1.07 1.09 1.12 1.14 1.13 1.06 0.99 1.01 1.10 1.10 1.09 1.08 1.04 1.03 1.05 1.07 1.10 1.08 0.95 0.91 0.85 0.83 0.79 0.74 0.73 0.76 0.77 0.79 0.78 0.72 0.68 0.66
0.21 0.21 0.25 0.25 0.25 0.27 0.22 0.24 0.29 0.29 0.25 0.23 0.23 0.26 0.24 0.24 0.26 0.19 0.24 0.21 0.22 0.20 0.24 0.27 0.24 0.27 0.30 0.45 0.43 0.44 0.49 0.55 0.55 0.55 0.56 0.57 0.59 0.66 0.66 0.69 0.78 0.83 0.89 0.94 0.93 0.95 0.98 1.07 1.11 1.09 1.05 1.06 1.05 1.06 1.08 1.06 1.07 1.07 1.09 1.11 1.08 1.03 1.04 1.03 1.01 1.00 1.00 1.02 1.05 1.09 1.09 1.09 1.01 0.93 0.91 0.85 0.79 0.77 0.76 0.78 0.79 0.78 0.78 0.74 0.71 0.69
0.23 0.21 0.28 0.28 0.27 0.27 0.26 0.25 0.26 0.28 0.22 0.28 0.24 0.22 0.24 0.30 0.26 0.23 0.24 0.28 0.25 0.21 0.20 0.28 0.26 0.27 0.34 0.44 0.48 0.47 0.49 0.57 0.56 0.58 0.61 0.61 0.62 0.61 0.62 0.66 0.77 0.81 0.88 0.93 0.95 0.97 1.02 1.09 1.12 1.15 1.11 1.12 1.13 1.10 1.11 1.12 1.14 1.10 1.08 1.11 1.11 1.09 1.07 1.05 1.05 1.05 0.99 0.96 1.02 1.06 1.10 1.10 1.06 0.94 0.88 0.83 0.78 0.77 0.79 0.81 0.81 0.81 0.79 0.74 0.70 0.68
0.24 0.23 0.27 0.28 0.26 0.29 0.30 0.29 0.28 0.27 0.28 0.31 0.25 0.26 0.30 0.30 0.29 0.26 0.21 0.24 0.19 0.17 0.17 0.24 0.24 0.24 0.25 0.26 0.39 0.48 0.54 0.55 0.58 0.58 0.60 0.66 0.68 0.64 0.64 0.67 0.72 0.76 0.85 0.93 0.93 0.98 1.03 1.07 1.04 1.07 1.09 1.10 1.13 1.16 1.18 1.18 1.18 1.16 1.09 1.06 1.08 1.08 1.05 1.06 1.06 1.03 0.98 0.98 1.04 1.08 1.10 1.12 1.10 1.00 0.85 0.85 0.80 0.79 0.79 0.80 0.80 0.82 0.78 0.69 0.68 0.69
0.29 0.24 0.26 0.28 0.28 0.30 0.30 0.28 0.26 0.28 0.29 0.28 0.30 0.37 0.26 0.23 0.20 0.23 0.21 0.17 0.17 0.15 0.16 0.19 0.24 0.24 0.26 0.28 0.36 0.41 0.48 0.51 0.54 0.60 0.60 0.60 0.62 0.63 0.66 0.68 0.73 0.79 0.86 0.90 0.92 0.95 0.97 0.98 1.03 1.02 1.04 1.07 1.12 1.14 1.15 1.17 1.19 1.20 1.16 1.16 1.11 1.06 1.06 1.06 1.09 1.09 1.06 1.10 1.15 1.16 1.13 1.11 1.07 1.06 0.87 0.81 0.81 0.77 0.73 0.75 0.76 0.73 0.75 0.72 0.67 0.65
0.36 0.25 0.27 0.30 0.27 0.28 0.28 0.26 0.20 0.23 0.25 0.28 0.30 0.29 0.32 0.29 0.26 0.22 0.21 0.20 0.19 0.18 0.17 0.17 0.22 0.22 0.27 0.29 0.35 0.43 0.56 0.52 0.53 0.54 0.57 0.59 0.62 0.64 0.65 0.67 0.73 0.77 0.81 0.87 0.89 0.94 0.97 0.95 0.95 0.95 0.99 1.07 1.08 1.09 1.13 1.15 1.13 1.10 1.17 1.16 1.13 1.13 1.16 1.16 1.15 1.14 1.11 1.12 1.16 1.15 1.13 1.10 1.12 1.12 0.95 0.75 0.74 0.73 0.72 0.77 0.76 0.76 0.75 0.72 0.68 0.65
0.32 0.36 0.25 0.31 0.33 0.28 0.23 0.24 0.22 0.23 0.23 0.23 0.22 0.23 0.27 0.27 0.31 0.28 0.29 0.24 0.20 0.18 0.18 0.18 0.18 0.27 0.34 0.48 0.39 0.48 0.58 0.56 0.58 0.60 0.59 0.60 0.62 0.63 0.65 0.65 0.67 0.70 0.74 0.80 0.87 0.87 0.84 0.79 0.78 0.84 0.91 0.94 0.96 0.98 0.98 1.00 1.00 1.02 1.07 1.10 1.09 1.07 1.11 1.13 1.15 1.16 1.17 1.16 1.18 1.13 1.07 1.10 1.14 1.13 1.03 0.80 0.69 0.69 0.74 0.82 0.84 0.84 0.81 0.75 0.73 0.72
0.30 0.33 0.28 0.33 0.29 0.26 0.26 0.27 0.26 0.24 0.26 0.26 0.25 0.23 0.23 0.24 0.23 0.20 0.21 0.29 0.26 0.22 0.19 0.19 0.19 0.34 0.43 0.50 0.56 0.57 0.56 0.56 0.59 0.56 0.58 0.59 0.61 0.64 0.66 0.69 0.70 0.69 0.71 0.72 0.74 0.76 0.76 0.78 0.79 0.83 0.86 0.84 0.83 0.85 0.87 0.89 0.93 0.96 0.99 1.04 1.08 1.11 1.11 1.11 1.11 1.13 1.16 1.16 1.19 1.13 1.09 1.15 1.15 1.12 1.06 0.91 0.72 0.72 0.81 0.80 0.77 0.81 0.80 0.77 0.75 0.74
0.38 0.36 0.32 0.29 0.29 0.30 0.30 0.29 0.29 0.27 0.28 0.28 0.28 0.27 0.27 0.25 0.25 0.23 0.18 0.21 0.24 0.24 0.25 0.24 0.22 0.33 0.53 0.53 0.53 0.55 0.52 0.58 0.59 0.60 0.57 0.59 0.61 0.63 0.67 0.69 0.71 0.72 0.72 0.74 0.74 0.75 0.77 0.80 0.82 0.81 0.83 0.85 0.87 0.87 0.92 0.90 0.94 0.97 0.96 1.01 1.04 1.06 1.08 1.11 1.13 1.18 1.18 1.13 1.12 1.08 1.07 1.09 1.09 1.09 1.05 1.02 0.88 0.78 0.85 0.77 0.71 0.74 0.75 0.80 0.75 0.74
0.40 0.32 0.30 0.29 0.31 0.32 0.32 0.33 0.31 0.30 0.27 0.25 0.27 0.30 0.29 0.26 0.26 0.25 0.24 0.26 0.24 0.24 0.22 0.21 0.19 0.31 0.50 0.54 0.57 0.55 0.57 0.63 0.67 0.62 0.57 0.61 0.60 0.61 0.65 0.71 0.72 0.72 0.74 0.75 0.79 0.79 0.73 0.79 0.80 0.79 0.80 0.83 0.88 0.91 0.87 0.89 0.96 0.90 0.91 0.95 1.02 1.00 1.03 1.08 1.09 1.10 1.08 1.05 1.04 1.05 1.04 1.04 1.07 1.06 1.06 1.04 0.98 0.88 0.89 0.81 0.80 0.78 0.80 0.85 0.82 0.77
0.32 0.33 0.30 0.28 0.27 0.30 0.29 0.30 0.29 0.29 0.28 0.25 0.25 0.27 0.28 0.30 0.30 0.30 0.31 0.31 0.27 0.27 0.26 0.23 0.19 0.30 0.47 0.51 0.56 0.57 0.58 0.64 0.62 0.65 0.64 0.60 0.62 0.62 0.67 0.71 0.74 0.73 0.74 0.78 0.86 0.85 0.80 0.76 0.76 0.77 0.80 0.81 0.83 0.88 0.90 0.88 0.93 0.94 0.90 0.92 0.91 0.92 0.95 1.01 1.04 1.03 1.05 1.05 1.02 1.02 1.03 1.03 1.06 1.06 1.06 1.06 1.04 0.96 0.93 0.80 0.82 0.84 0.83 0.86 0.80 0.83
0.35 0.39 0.33 0.25 0.24 0.22 0.21 0.22 0.23 0.24 0.25 0.26 0.27 0.28 0.30 0.26 0.27 0.29 0.26 0.28 0.25 0.27 0.27 0.25 0.29 0.38 0.47 0.53 0.54 0.54 0.59 0.63 0.65 0.65 0.67 0.67 0.66 0.62 0.68 0.73 0.76 0.79 0.80 0.83 0.87 0.87 0.87 0.87 0.86 0.82 0.79 0.80 0.80 0.81 0.83 0.86 0.89 0.92 0.92 0.94 0.94 0.92 0.94 0.97 1.00 1.00 1.02 1.02 1.01 1.01 1.02 1.05 1.08 1.08 1.08 1.08 1.07 1.04 0.95 0.89 0.80 0.82 0.82 0.86 0.78 0.83
0.38 0.39 0.38 0.35 0.32 0.31 0.33 0.33 0.34 0.34 0.30 0.26 0.25 0.28 0.28 0.29 0.30 0.29 0.28 0.26 0.23 0.26 0.25 0.27 0.30 0.37 0.40 0.48 0.50 0.54 0.59 0.59 0.61 0.64 0.64 0.65 0.69 0.74 0.76 0.81 0.80 0.80 0.81 0.80 0.82 0.82 0.82 0.83 0.84 0.86 0.85 0.82 0.84 0.82 0.84 0.88 0.90 0.92 0.93 0.93 0.98 0.98 1.01 1.02 1.04 1.03 1.01 1.00 0.99 0.99 1.00 1.03 1.06 1.12 1.11 1.06 1.04 1.07 1.05 0.93 0.84 0.83 0.79 0.85 0.84 0.84
0.37 0.34 0.37 0.38 0.38 0.38 0.38 0.37 0.38 0.34 0.30 0.29 0.28 0.28 0.30 0.30 0.31 0.31 0.28 0.25 0.30 0.27 0.24 0.38 0.41 0.35 0.40 0.46 0.48 0.50 0.58 0.59 0.66 0.68 0.68 0.70 0.73 0.74 0.75 0.77 0.79 0.78 0.78 0.76 0.74 0.73 0.73 0.76 0.77 0.81 0.82 0.85 0.84 0.88 0.90 0.90 0.90 0.93 0.95 0.95 1.01 1.06 1.06 1.06 1.04 1.01 0.97 0.95 0.96 0.98 1.01 1.05 1.11 1.10 1.09 1.07 1.05 1.04 1.04 1.06 0.96 0.87 0.84 0.85 0.83 0.85
0.36 0.32 0.36 0.36 0.36 0.39 0.39 0.39 0.40 0.37 0.34 0.35 0.35 0.35 0.34 0.33 0.31 0.29 0.30 0.34 0.31 0.27 0.25 0.38 0.45 0.41 0.46 0.48 0.51 0.56 0.62 0.65 0.66 0.69 0.72 0.74 0.74 0.73 0.74 0.73 0.72 0.69 0.71 0.70 0.69 0.70 0.69 0.70 0.72 0.73 0.75 0.78 0.82 0.85 0.89 0.89 0.91 0.95 0.95 0.97 1.00 1.00 0.99 1.00 0.98 0.96 0.97 0.96 0.95 0.99 1.03 1.05 1.10 1.09 1.08 1.04 1.03 1.04 1.03 1.05 1.05 1.01 0.94 0.92 0.90 0.89
0.39 0.36 0.38 0.36 0.34 0.35 0.37 0.38 0.39 0.37 0.35 0.34 0.34 0.34 0.36 0.36 0.36 0.36 0.34 0.35 0.37 0.39 0.41 0.43 0.44 0.43 0.48 0.50 0.54 0.57 0.63 0.66 0.68 0.71 0.71 0.70 0.69 0.70 0.70 0.69 0.67 0.66 0.65 0.66 0.67 0.68 0.69 0.68 0.70 0.70 0.72 0.74 0.75 0.78 0.80 0.88 0.87 0.89 0.89 0.90 0.93 0.92 0.93 0.98 0.97 0.97 0.97 0.97 1.00 1.03 1.07 1.07 1.09 1.10 1.07 1.05 1.05 1.07 1.07 1.04 1.03 1.03 1.03 1.06 1.05 0.99
0.37 0.37 0.37 0.36 0.33 0.33 0.37 0.38 0.39 0.39 0.36 0.35 0.36 0.38 0.40 0.37 0.36 0.36 0.36 0.38 0.40 0.39 0.42 0.41 0.41 0.41 0.52 0.56 0.56 0.60 0.65 0.67 0.67 0.64 0.65 0.66 0.67 0.68 0.68 0.66 0.65 0.64 0.63 0.64 0.65 0.65 0.68 0.69 0.67 0.66 0.68 0.70 0.73 0.75 0.76 0.78 0.82 0.88 0.88 0.86 0.87 0.88 0.93 0.94 0.90 0.91 0.95 0.94 0.98 1.01 1.02 1.03 1.04 1.05 1.05 1.07 1.10 1.10 1.09 1.07 1.06 1.04 1.05 1.06 1.08 1.05
0.40 0.38 0.40 0.36 0.29 0.30 0.36 0.37 0.38 0.40 0.39 0.35 0.34 0.36 0.37 0.38 0.32 0.30 0.30 0.39 0.39 0.37 0.40 0.39 0.36 0.37 0.49 0.56 0.58 0.61 0.62 0.62 0.60 0.60 0.61 0.63 0.64 0.66 0.65 0.64 0.64 0.63 0.64 0.65 0.65 0.64 0.62 0.62 0.63 0.63 0.65 0.67 0.68 0.71 0.74 0.78 0.80 0.84 0.86 0.88 0.90 0.93 0.95 0.94 0.90 0.86 0.89 0.92 0.93 0.93 0.92 0.94 0.94 0.94 0.97 1.00 1.01 1.02 1.03 1.04 1.04 1.04 1.02 1.02 1.04 1.03
0.39 0.38 0.34 0.34 0.29 0.29 0.37 0.37 0.37 0.38 0.38 0.34 0.34 0.35 0.39 0.35 0.35 0.34 0.34 0.36 0.39 0.42 0.39 0.34 0.35 0.45 0.52 0.55 0.52 0.54 0.57 0.57 0.55 0.56 0.58 0.59 0.63 0.65 0.65 0.63 0.63 0.62 0.61 0.62 0.61 0.61 0.61 0.62 0.64 0.64 0.64 0.63 0.64 0.67 0.69 0.70 0.70 0.73 0.80 0.83 0.88 0.89 0.88 0.87 0.86 0.85 0.84 0.83 0.83 0.86 0.88 0.89 0.88 0.88 0.90 0.93 0.95 0.96 0.96 0.96 0.96 0.95 0.94 0.93 0.96 1.01
0.39 0.39 0.35 0.38 0.29 0.30 0.36 0.38 0.40 0.34 0.25 0.27 0.44 0.48 0.45 0.38 0.36 0.33 0.33 0.34 0.37 0.40 0.41 0.45 0.43 0.48 0.51 0.50 0.47 0.46 0.47 0.48 0.48 0.49 0.50 0.52 0.53 0.55 0.57 0.59 0.60 0.60 0.60 0.60 0.60 0.61 0.62 0.64 0.64 0.64 0.65 0.65 0.65 0.66 0.67 0.68 0.68 0.68 0.70 0.70 0.70 0.68 0.69 0.68 0.70 0.72 0.75 0.80 0.80 0.82 0.85 0.86 0.87 0.85 0.86 0.88 0.88 0.89 0.89 0.90 0.89 0.88 0.88 0.93 0.98 0.99
0.40 0.38 0.34 0.38 0.30 0.29 0.37 0.37 0.30 0.22 0.25 0.41 0.48 0.49 0.49 0.47 0.45 0.40 0.40 0.40 0.40 0.41 0.42 0.43 0.44 0.45 0.48 0.48 0.47 0.49 0.54 0.56 0.56 0.54 0.54 0.54 0.54 0.54 0.54 0.53 0.54 0.56 0.57 0.58 0.58 0.58 0.60 0.62 0.63 0.62 0.61 0.61 0.63 0.65 0.64 0.63 0.64 0.63 0.62 0.62 0.61 0.60 0.58 0.59 0.59 0.60 0.61 0.62 0.65 0.70 0.75 0.81 0.82 0.86 0.85 0.86 0.86 0.86 0.84 0.82 0.81 0.87 0.96 0.96 0.94 0.95
0.36 0.33 0.33 0.36 0.35 0.35 0.34 0.31 0.20 0.21 0.35 0.42 0.44 0.47 0.49 0.48 0.47 0.43 0.40 0.43 0.46 0.47 0.46 0.41 0.43 0.45 0.46 0.45 0.47 0.51 0.55 0.58 0.61 0.64 0.65 0.65 0.63 0.60 0.57 0.56 0.58 0.60 0.61 0.61 0.60 0.60 0.62 0.62 0.62 0.62 0.63 0.64 0.63 0.62 0.62 0.61 0.63 0.63 0.61 0.62 0.61 0.59 0.60 0.60 0.59 0.58 0.58 0.57 0.57 0.58 0.59 0.63 0.63 0.70 0.74 0.79 0.81 0.81 0.84 0.87 0.88 0.88 0.91 0.91 0.93 0.94
0.38 0.38 0.35 0.30 0.37 0.29 0.31 0.31 0.28 0.35 0.34 0.35 0.36 0.38 0.42 0.38 0.39 0.38 0.31 0.37 0.45 0.47 0.46 0.43 0.43 0.44 0.46 0.47 0.49 0.49 0.50 0.51 0.50 0.50 0.55 0.60 0.63 0.65 0.67 0.65 0.64 0.63 0.64 0.63 0.63 0.62 0.63 0.63 0.63 0.65 0.66 0.65 0.67 0.67 0.66 0.66 0.66 0.64 0.63 0.62 0.62 0.62 0.63 0.63 0.62 0.62 0.62 0.62 0.61 0.61 0.60 0.60 0.61 0.62 0.64 0.65 0.65 0.66 0.72 0.75 0.82 0.88 0.89 0.83 0.86 0.88
0.38 0.31 0.35 0.30 0.31 0.32 0.27 0.24 0.28 0.26 0.22 0.29 0.38 0.42 0.46 0.48 0.46 0.47 0.39 0.35 0.43 0.47 0.49 0.46 0.44 0.46 0.47 0.48 0.49 0.50 0.51 0.45 0.40 0.42 0.48 0.52 0.55 0.56 0.58 0.59 0.62 0.62 0.63 0.66 0.68 0.68 0.67 0.68 0.70 0.69 0.70 0.67 0.67 0.68 0.68 0.69 0.70 0.67 0.65 0.66 0.65 0.64 0.64 0.65 0.65 0.66 0.66 0.66 0.66 0.65 0.65 0.63 0.61 0.62 0.62 0.62 0.61 0.66 0.68 0.71 0.74 0.79 0.86 0.88 0.87 0.85
0.36 0.38 0.37 0.33 0.29 0.29 0.25 0.22 0.23 0.23 0.27 0.37 0.40 0.41 0.43 0.43 0.44 0.45 0.37 0.31 0.41 0.45 0.47 0.47 0.44 0.44 0.45 0.45 0.46 0.48 0.44 0.39 0.38 0.41 0.46 0.48 0.50 0.52 0.51 0.52 0.55 0.57 0.58 0.58 0.60 0.62 0.65 0.68 0.69 0.69 0.71 0.69 0.67 0.69 0.68 0.68 0.70 0.69 0.67 0.67 0.68 0.68 0.68 0.66 0.65 0.66 0.67 0.67 0.68 0.68 0.68 0.67 0.66 0.63 0.63 0.62 0.62 0.66 0.69 0.69 0.69 0.72 0.77 0.77 0.74 0.73
0.31 0.31 0.31 0.25 0.24 0.26 0.26 0.23 0.21 0.30 0.26 0.39 0.41 0.41 0.40 0.44 0.41 0.37 0.22 0.25 0.38 0.42 0.44 0.43 0.42 0.42 0.43 0.45 0.46 0.44 0.39 0.36 0.35 0.39 0.46 0.47 0.50 0.53 0.52 0.52 0.53 0.53 0.54 0.56 0.55 0.56 0.58 0.60 0.61 0.60 0.59 0.61 0.61 0.64 0.63 0.63 0.63 0.62 0.62 0.61 0.63 0.65 0.62 0.61 0.62 0.62 0.63 0.64 0.65 0.65 0.65 0.66 0.65 0.64 0.63 0.63 0.66 0.67 0.64 0.65 0.67 0.67 0.68 0.68 0.67 0.69
0.29 0.30 0.29 0.25 0.27 0.28 0.28 0.25 0.29 0.30 0.39 0.42 0.42 0.42 0.42 0.46 0.40 0.26 0.23 0.32 0.41 0.42 0.44 0.44 0.43 0.44 0.46 0.45 0.45 0.39 0.43 0.43 0.42 0.44 0.47 0.47 0.46 0.47 0.49 0.50 0.51 0.51 0.51 0.51 0.51 0.51 0.50 0.51 0.53 0.53 0.53 0.54 0.55 0.57 0.59 0.59 0.58 0.55 0.57 0.58 0.57 0.61 0.61 0.58 0.58 0.58 0.58 0.59 0.59 0.60 0.61 0.62 0.63 0.63 0.62 0.62 0.61 0.62 0.60 0.61 0.61 0.63 0.61 0.61 0.61 0.62
0.25 0.25 0.26 0.28 0.27 0.26 0.28 0.27 0.29 0.34 0.41 0.45 0.45 0.44 0.46 0.38 0.26 0.26 0.38 0.46 0.45 0.43 0.44 0.46 0.45 0.46 0.47 0.46 0.44 0.43 0.44 0.46 0.46 0.46 0.46 0.46 0.46 0.46 0.47 0.48 0.48 0.48 0.49 0.49 0.48 0.48 0.45 0.45 0.47 0.48 0.48 0.49 0.49 0.50 0.51 0.54 0.52 0.51 0.52 0.52 0.53 0.58 0.59 0.56 0.56 0.54 0.53 0.54 0.55 0.56 0.58 0.58 0.60 0.58 0.57 0.58 0.60 0.60 0.59 0.58 0.58 0.59 0.60 0.57 0.55 0.54
0.26 0.25 0.23 0.21 0.26 0.26 0.25 0.25 0.26 0.23 0.37 0.46 0.43 0.40 0.43 0.33 0.33 0.41 0.44 0.45 0.46 0.45 0.45 0.45 0.46 0.46 0.46 0.44 0.44 0.44 0.45 0.46 0.47 0.47 0.48 0.47 0.46 0.46 0.46 0.45 0.45 0.44 0.44 0.45 0.44 0.46 0.44 0.42 0.43 0.43 0.46 0.46 0.47 0.47 0.47 0.46 0.47 0.47 0.47 0.47 0.47 0.52 0.56 0.55 0.51 0.48 0.48 0.49 0.49 0.49 0.50 0.52 0.52 0.54 0.55 0.54 0.55 0.55 0.55 0.57 0.57 0.56 0.56 0.56 0.54 0.52
0.33 0.24 0.22 0.26 0.29 0.23 0.25 0.23 0.25 0.34 0.40 0.46 0.45 0.34 0.39 0.41 0.45 0.46 0.44 0.43 0.46 0.46 0.45 0.45 0.46 0.47 0.46 0.45 0.45 0.46 0.47 0.47 0.47 0.46 0.45 0.45 0.44 0.45 0.44 0.44 0.44 0.44 0.44 0.44 0.44 0.45 0.42 0.41 0.41 0.42 0.43 0.44 0.45 0.45 0.44 0.43 0.41 0.42 0.43 0.43 0.45 0.48 0.49 0.48 0.46 0.47 0.47 0.46 0.46 0.46 0.46 0.47 0.49 0.50 0.52 0.54 0.55 0.53 0.52 0.53 0.55 0.56 0.56 0.57 0.55 0.54
0.30 0.26 0.30 0.25 0.34 0.29 0.28 0.32 0.40 0.42 0.43 0.46 0.45 0.44 0.44 0.46 0.47 0.47 0.46 0.45 0.44 0.45 0.47 0.45 0.45 0.47 0.48 0.47 0.46 0.46 0.45 0.43 0.43 0.44 0.42 0.42 0.42 0.43 0.41 0.41 0.42 0.42 0.41 0.41 0.41 0.42 0.41 0.40 0.41 0.41 0.42 0.44 0.44 0.45 0.44 0.44 0.41 0.41 0.40 0.42 0.44 0.45 0.45 0.44 0.42 0.41 0.41 0.41 0.41 0.42 0.43 0.45 0.46 0.47 0.49 0.50 0.51 0.51 0.49 0.49 0.51 0.52 0.55 0.55 0.56 0.55
0.27 0.28 0.32 0.28 0.27 0.35 0.38 0.40 0.41 0.42 0.43 0.44 0.47 0.48 0.46 0.46 0.47 0.47 0.47 0.45 0.46 0.47 0.47 0.45 0.46 0.45 0.44 0.45 0.43 0.43 0.41 0.41 0.40 0.41 0.40 0.40 0.40 0.40 0.41 0.41 0.41 0.41 0.41 0.41 0.41 0.42 0.40 0.41 0.40 0.41 0.41 0.42 0.43 0.42 0.43 0.43 0.43 0.41 0.42 0.44 0.44 0.44 0.44 0.43 0.42 0.42 0.41 0.41 0.40 0.40 0.41 0.41 0.43 0.45 0.46 0.47 0.48 0.48 0.49 0.50 0.49 0.49 0.51 0.54 0.54 0.54
0.24 0.25 0.24 0.22 0.30 0.24 0.23 0.34 0.34 0.36 0.40 0.42 0.43 0.46 0.47 0.47 0.46 0.47 0.46 0.46 0.45 0.46 0.45 0.46 0.45 0.44 0.43 0.42 0.41 0.40 0.41 0.41 0.40 0.40 0.39 0.39 0.39 0.39 0.39 0.39 0.39 0.40 0.40 0.41 0.41 0.42 0.41 0.40 0.39 0.39 0.39 0.39 0.40 0.40 0.40 0.40 0.40 0.41 0.42 0.44 0.46 0.46 0.46 0.46 0.44 0.43 0.43 0.41 0.39 0.39 0.38 0.37 0.37 0.39 0.40 0.41 0.41 0.43 0.45 0.45 0.46 0.48 0.49 0.49 0.49 0.50
0.22 0.26 0.21 0.23 0.24 0.21 0.26 0.32 0.35 0.36 0.37 0.39 0.39 0.39 0.40 0.42 0.43 0.45 0.45 0.45 0.45 0.45 0.46 0.45 0.45 0.43 0.44 0.42 0.40 0.39 0.40 0.41 0.40 0.38 0.38 0.38 0.39 0.39 0.39 0.39 0.39 0.39 0.40 0.40 0.40 0.40 0.38 0.38 0.37 0.37 0.37 0.37 0.38 0.39 0.39 0.39 0.40 0.40 0.41 0.42 0.43 0.43 0.43 0.42 0.42 0.41 0.41 0.41 0.41 0.40 0.39 0.38 0.38 0.36 0.33 0.32 0.32 0.36 0.40 0.40 0.38 0.40 0.43 0.45 0.47 0.47
0.25 0.22 0.17 0.23 0.22 0.28 0.31 0.32 0.32 0.34 0.34 0.34 0.35 0.36 0.37 0.38 0.39 0.41 0.43 0.43 0.43 0.43 0.42 0.42 0.40 0.40 0.39 0.38 0.37 0.36 0.35 0.37 0.37 0.36 0.34 0.34 0.34 0.35 0.35 0.35 0.35 0.35 0.35 0.35 0.36 0.36 0.35 0.34 0.34 0.34 0.34 0.35 0.36 0.36 0.36 0.36 0.37 0.37 0.38 0.38 0.39 0.39 0.38 0.38 0.38 0.37 0.37 0.37 0.37 0.36 0.36 0.35 0.34 0.33 0.33 0.33 0.34 0.34 0.33 0.31 0.29 0.31 0.36 0.41 0.44 0.48
0.20 0.16 0.23 0.22 0.20 0.22 0.22 0.26 0.30 0.23 0.22 0.28 0.31 0.33 0.34 0.36 0.36 0.35 0.36 0.36 0.35 0.36 0.37 0.35 0.36 0.37 0.37 0.36 0.34 0.33 0.32 0.33 0.33 0.33 0.31 0.32 0.32 0.32 0.31 0.31 0.31 0.31 0.31 0.32 0.31 0.32 0.32 0.32 0.32 0.31 0.31 0.32 0.33 0.34 0.33 0.34 0.34 0.36 0.36 0.36 0.36 0.35 0.34 0.33 0.33 0.33 0.33 0.33 0.33 0.33 0.34 0.34 0.35 0.35 0.35 0.34 0.34 0.34 0.34 0.35 0.33 0.33 0.37 0.39 0.48 0.49
0.20 0.25 0.21 0.17 0.18 0.20 0.27 0.29 0.31 0.30 0.30 0.32 0.33 0.35 0.34 0.34 0.33 0.31 0.30 0.31 0.33 0.32 0.32 0.31 0.31 0.31 0.32 0.32 0.32 0.31 0.30 0.29 0.28 0.28 0.28 0.27 0.28 0.29 0.29 0.29 0.28 0.28 0.29 0.30 0.29 0.30 0.30 0.31 0.32 0.32 0.32 0.33 0.34 0.35 0.35 0.36 0.37 0.37 0.38 0.38 0.38 0.37 0.36 0.35 0.34 0.32 0.31 0.31 0.31 0.32 0.32 0.31 0.31 0.33 0.33 0.31 0.31 0.32 0.30 0.31 0.34 0.35 0.34 0.32 0.36 0.41
Wind_Speed
16 15 16 16 16 16 17 19 18 15 13 13 14 16 18 17 16 19 17 14 17 17 18 21 20 19 21 21 19 18 18 19 20 20 20 19 18 19 19 18 17 17 17 16 17 17 16 15 15 14 14 14 13 13 13 12 12 13 13 14 15 14 14 14 14 13 11 9 8 8 8 8 7 6 5 4 3 2 2 2 3 3 4 5 5 5
15 16 16 16 17 16 16 19 18 15 14 13 13 13 16 16 15 17 17 14 16 17 16 18 21 20 19 20 20 19 18 19 20 21 20 20 19 19 19 19 17 17 16 16 16 17 16 15 15 14 14 14 14 12 12 12 13 12 12 14 15 15 15 15 15 14 10 9 9 8 8 8 8 7 5 4 3 3 3 3 4 4 4 5 5 6
15 16 16 16 16 14 13 15 16 15 16 16 14 13 15 16 15 15 15 13 13 15 16 18 19 19 20 20 19 18 18 18 20 21 20 20 20 19 19 19 18 17 17 17 17 17 16 16 15 15 14 14 14 13 11 12 14 13 13 15 16 15 16 16 16 14 11 10 9 8 8 8 7 6 5 4 4 4 4 4 4 4 4 5 5 5
14 15 17 17 14 14 14 14 15 16 16 17 16 15 15 15 17 15 14 16 16 15 17 17 17 18 19 19 18 18 19 18 19 21 20 20 20 19 19 19 18 18 17 17 17 17 16 16 15 15 15 14 14 13 12 13 14 13 14 17 16 15 17 16 16 15 12 10 9 8 7 7 6 6 5 4 4 4 4 5 5 5 5 5 5 6
14 12 15 16 13 15 16 15 15 15 16 17 17 17 16 15 17 15 12 14 16 16 17 16 16 17 18 18 18 18 18 18 18 20 20 20 19 19 19 19 19 18 18 18 18 17 17 16 15 15 15 14 14 14 13 13 14 14 15 16 16 16 17 17 16 15 11 10 9 8 7 7 7 6 5 5 4 4 5 5 5 5 5 5 5 6
15 11 12 14 13 15 16 15 16 16 15 16 18 19 18 15 15 15 13 13 13 14 17 17 16 16 17 18 18 17 17 17 17 18 19 19 19 19 19 19 19 19 18 18 18 18 17 16 15 15 14 13 13 14 13 14 14 14 15 16 16 17 17 17 17 14 11 10 10 9 8 7 7 7 6 5 5 5 5 5 5 5 5 5 5 5
15 12 13 15 14 15 16 15 16 16 15 15 16 19 20 16 14 15 15 15 14 12 14 17 16 14 14 17 18 17 17 18 17 18 18 18 19 19 19 19 19 19 18 18 18 18 16 14 13 13 12 11 10 11 13 14 14 14 15 16 17 17 17 17 16 14 12 12 11 10 8 8 7 7 6 5 5 5 5 5 5 5 5 5 5 5
16 13 13 15 15 15 15 14 15 16 16 13 12 17 20 18 15 15 15 15 14 11 11 15 17 14 13 15 17 18 18 18 18 17 18 18 18 19 19 19 19 19 19 18 17 15 14 12 12 12 12 11 11 10 11 13 15 14 15 17 17 17 17 16 15 14 13 12 11 10 9 9 8 7 6 5 5 5 5 5 5 5 5 5 5 6
16 17 15 15 15 14 14 15 15 17 16 13 11 14 18 18 17 15 16 15 14 13 12 14 16 14 12 13 16 17 18 18 17 17 17 17 18 19 19 19 18 18 18 18 15 13 12 11 11 11 11 12 12 11 10 13 15 13 14 16 16 16 15 15 15 14 13 13 12 11 10 10 9 8 7 6 6 6 6 5 5 5 5 5 6 6
12 17 16 16 15 13 14 15 14 17 16 11 11 13 14 16 16 15 15 15 13 14 14 14 16 14 11 13 15 15 17 18 16 15 16 16 17 19 19 18 18 17 17 15 14 13 12 12 12 11 11 11 11 10 10 12 13 12 12 13 13 13 13 13 13 13 13 13 13 11 10 10 9 9 8 7 6 6 6 6 5 5 6 6 6 6
9 12 15 16 16 12 11 12 12 15 16 11 10 13 13 13 14 13 14 14 12 14 15 14 16 15 12 12 15 15 16 16 14 15 16 16 17 18 18 18 18 18 16 14 13 13 13 13 12 11 11 11 11 10 9 11 12 12 13 13 13 13 14 14 13 12 13 13 13 12 11 11 10 10 9 8 7 6 6 6 6 6 6 6 6 6
12 13 14 16 17 12 10 11 13 15 16 12 12 13 13 13 13 13 13 14 13 13 14 15 15 16 13 11 13 15 14 13 13 15 16 17 17 18 18 17 17 18 16 14 13 12 13 13 13 13 12 12 12 11 10 11 12 13 14 14 14 14 15 15 14 13 13 13 13 12 11 11 11 10 10 9 8 7 6 6 6 6 6 6 6 6
15 15 15 16 17 15 13 12 13 15 15 14 14 14 13 12 11 12 13 13 13 12 12 13 14 15 13 10 10 12 12 12 11 12 15 16 16 17 18 17 18 18 16 14 13 12 13 14 13 14 13 12 12 12 12 12 13 14 15 14 14 15 15 15 15 15 14 14 14 13 12 11 11 11 11 10 9 8 8 7 7 7 6 6 6 6
15 16 17 17 16 16 16 13 12 14 15 15 15 14 13 12 11 12 12 12 13 12 11 11 12 14 12 11 11 10 10 12 10 11 14 15 15 16 17 18 19 17 15 13 12 13 14 14 14 15 14 13 13 14 13 13 13 13 14 15 14 14 15 16 16 16 16 15 15 15 14 13 12 12 11 11 10 10 9 8 8 8 7 7 7 6
16 16 18 18 16 16 18 16 13 12 15 16 15 15 14 12 11 11 10 10 10 11 12 12 12 13 13 12 13 12 11 12 12 12 13 14 15 16 16 18 17 15 14 14 12 13 14 15 15 15 14 13 14 15 14 14 14 14 14 15 15 15 16 16 16 16 16 16 16 16 16 14 13 12 11 11 10 10 10 10 9 9 8 8 7 7
16 15 17 19 17 16 18 18 15 13 14 15 16 16 15 14 12 11 9 8 8 9 11 12 12 11 11 12 12 13 13 13 13 13 12 12 13 13 13 14 14 13 14 14 13 13 14 15 15 15 14 14 14 15 15 15 15 15 15 16 16 16 17 17 17 17 17 17 18 18 17 16 15 14 12 12 11 11 11 11 10 9 8 8 8 7
16 13 14 19 19 17 18 18 17 15 13 13 16 17 14 13 13 12 10 9 10 11 10 11 13 12 12 12 12 13 14 14 13 12 12 11 12 12 12 12 12 12 13 13 13 13 13 14 14 14 14 15 15 15 15 16 16 15 15 15 15 15 16 17 17 17 17 17 18 19 19 17 16 15 14 13 13 12 12 11 10 9 9 9 8 7
14 13 12 17 19 18 17 17 17 18 15 13 14 16 14 12 13 12 10 9 12 13 12 11 13 13 12 13 14 16 16 14 12 12 12 12 12 12 12 11 11 11 11 11 11 11 12 13 14 14 15 15 15 15 15 15 15 15 15 15 14 14 15 16 17 16 16 16 17 18 19 18 17 16 15 14 13 13 12 11 10 9 9 8 8 7
15 14 14 17 18 18 18 17 17 18 18 16 13 13 14 14 14 14 13 11 12 13 13 13 14 14 13 12 14 17 15 13 12 12 13 12 12 12 12 11 11 11 10 10 11 11 12 13 13 13 14 14 15 15 15 15 15 14 15 15 14 14 14 15 16 16 16 16 16 18 18 17 17 16 15 14 14 13 12 11 10 9 9 8 8 8
15 15 14 15 17 17 17 18 19 17 19 19 15 14 15 14 13 14 13 13 13 12 12 13 14 12 11 11 14 15 13 13 13 13 13 12 12 12 12 12 12 12 11 11 11 11 11 12 13 13 13 14 14 14 14 15 15 14 14 14 14 14 15 15 16 16 16 16 16 17 17 17 17 17 15 14 14 13 13 12 11 10 9 9 9 8
16 16 15 14 15 17 17 18 20 18 17 19 19 17 16 15 14 14 13 14 14 13 12 13 12 10 8 10 12 13 12 12 13 13 13 12 12 12 12 12 13 13 13 12 12 11 11 12 13 13 12 12 13 13 14 14 15 15 16 15 15 15 15 15 15 15 16 16 16 17 17 18 18 17 15 14 14 13 13 13 12 11 11 10 10 10
16 16 16 15 15 16 16 17 20 20 17 17 19 20 19 17 15 14 15 15 14 13 13 13 11 9 9 10 11 12 12 12 13 13 12 12 11 11 11 12 13 12 12 12 12 12 12 12 13 12 11 11 12 13 13 14 14 15 15 15 15 15 15 15 15 15 15 16 16 17 17 17 17 16 15 15 15 15 15 14 13 12 12 11 11 11
15 15 17 17 17 15 14 15 17 18 18 17 17 18 19 19 18 17 16 15 14 15 14 14 12 10 11 11 10 12 13 12 13 13 12 11 11 11 11 11 11 12 12 12 11 11 11 11 12 11 11 11 11 12 12 12 12 12 13 13 14 14 14 13 13 14 14 14 15 16 17 17 17 16 16 16 16 16 16 15 15 14 13 12 12 11
15 16 17 18 17 16 15 15 15 17 19 19 18 17 17 18 18 18 17 15 15 15 15 15 13 11 12 12 11 12 12 11 12 13 12 12 11 11 11 11 11 11 11 10 10 10 10 10 11 10 10 10 9 9 10 10 10 11 11 12 12 12 12 12 11 12 12 13 14 15 16 17 17 17 17 17 17 17 16 16 16 15 14 13 13 12
16 16 17 16 15 16 17 16 16 17 19 20 19 19 19 20 19 17 16 15 15 15 14 13 12 11 12 13 12 12 12 11 12 12 12 12 11 12 12 11 11 10 10 9 9 9 10 10 10 10 10 9 8 8 8 8 9 10 10 10 11 11 11 11 11 11 12 12 13 14 15 16 16 16 16 16 16 16 16 16 16 15 15 14 14 13
16 15 16 16 15 14 14 13 14 16 18 19 20 20 19 21 21 18 17 16 16 16 16 14 11 9 11 12 11 12 13 12 12 12 12 12 12 12 12 11 10 10 9 9 9 9 9 9 9 10 9 9 9 8 8 8 8 8 9 9 9 10 11 11 11 12 12 13 13 13 14 15 15 15 15 16 16 15 15 15 16 16 15 15 15 14
16 15 16 17 16 14 13 12 12 14 16 19 21 21 19 20 21 19 19 18 17 16 17 15 13 12 12 12 12 12 12 13 13 13 12 12 12 12 11 11 10 10 9 9 9 9 9 9 9 9 9 9 9 9 8 8 8 8 8 9 9 10 11 11 12 12 12 13 13 13 14 14 14 15 15 15 16 16 16 16 16 16 16 16 16 15
15 15 15 16 16 17 17 16 13 13 14 16 17 18 18 19 20 20 19 18 16 15 14 12 12 13 13 12 12 11 12 12 13 12 12 12 12 12 12 11 11 10 10 10 10 10 10 10 10 10 9 9 9 9 9 9 9 9 9 10 10 10 10 11 11 12 12 13 13 13 14 14 14 14 15 15 15 16 17 17 17 17 17 17 17 17
15 15 15 15 15 16 17 17 14 13 13 12 12 12 13 16 17 18 17 17 16 16 13 12 12 12 12 12 11 11 11 11 12 12 12 12 13 13 13 12 11 11 10 10 10 10 10 10 10 10 10 10 10 9 9 9 10 10 10 10 10 10 10 10 11 11 11 12 13 13 14 14 14 15 15 15 15 16 17 17 17 17 17 18 18 18
15 14 14 16 16 17 17 16 15 15 14 13 12 11 11 12 12 13 12 12 13 14 14 14 13 11 11 11 12 13 13 12 12 13 13 13 13 14 13 12 12 11 10 10 10 10 10 10 10 10 10 10 10 10 10 10 10 10 11 11 11 11 11 11 11 12 12 12 13 13 14 14 15 15 15 15 15 16 17 18 18 18 19 19 19 19
15 14 14 15 16 18 18 18 17 17 17 16 15 13 12 11 10 10 10 10 12 13 14 15 14 13 12 12 12 13 14 14 13 13 13 13 13 13 13 12 12 11 11 11 10 10 10 11 11 11 11 10 11 11 11 11 10 11 11 11 11 11 12 12 12 12 12 13 13 13 14 15 15 15 16 16 16 17 17 18 19 20 21 22 22 21
15 14 14 15 16 16 17 18 19 19 20 21 21 19 16 13 11 11 11 11 11 13 14 15 14 14 14 13 13 13 12 13 12 12 13 13 13 13 13 13 13 12 12 12 11 11 11 11 11 11 11 11 11 11 12 12 12 12 11 11 12 12 12 12 13 13 13 13 13 14 14 15 15 16 16 17 17 18 18 19 20 21 22 23 24 23
15 15 14 15 15 15 15 16 15 15 18 22 24 22 19 16 14 13 12 11 11 12 14 14 13 14 14 14 14 13 12 12 11 11 12 12 12 12 13 13 13 12 12 11 11 11 12 12 11 11 12 12 12 12 12 13 13 13 13 13 13 13 13 13 14 14 14 14 14 15 15 16 16 17 17 18 18 19 19 20 20 21 22 23 24 24
15 15 15 15 15 14 14 14 13 14 15 16 18 19 20 20 19 16 14 13 12 12 12 12 12 13 14 14 14 13 13 12 11 11 11 11 12 11 11 11 11 11 11 11 11 13 13 13 13 13 13 13 13 13 13 13 13 13 14 14 14 14 14 14 14 15 15 15 16 16 17 17 17 18 18 19 20 20 21 21 22 23 23 24 24 25
16 16 15 14 15 14 12 13 14 15 13 11 12 14 16 19 19 17 16 16 16 15 14 13 13 13 13 13 13 12 12 12 11 11 12 13 14 13 13 13 13 13 14 14 15 15 15 14 14 14 14 14 14 14 14 15 15 15 15 15 15 16 16 16 16 16 16 16 17 17 18 18 18 19 19 20 21 21 22 23 24 24 24 25 25 26
16 16 15 14 13 12 13 14 14 12 11 11 11 12 13 15 16 16 16 17 17 18 17 16 15 14 13 13 13 13 13 13 12 13 13 13 14 15 15 16 16 16 16 16 16 16 16 15 15 16 16 16 15 15 16 16 16 17 17 17 17 17 17 18 18 18 18 18 18 19 19 19 20 20 20 21 21 22 23 24 25 25 26 26 27 27
16 16 16 16 14 13 13 13 12 11 12 12 12 12 12 13 13 14 14 15 16 17 17 17 17 16 15 15 15 15 15 14 14 15 15 15 15 15 15 16 16 16 15 15 16 16 16 16 16 16 16 16 16 16 16 16 17 17 18 18 19 19 19 20 20 20 20 20 20 20 20 20 21 21 21 22 22 23 23 24 24 25 26 27 27 27
17 17 17 16 15 15 15 14 13 13 13 13 12 12 13 13 13 14 13 13 15 16 16 16 17 16 17 17 17 18 17 16 16 17 17 17 17 17 16 16 15 15 14 14 14 14 15 15 16 16 16 16 16 16 16 16 17 17 18 18 19 20 20 20 20 20 20 20 20 21 21 22 22 22 23 23 24 25 25 25 25 26 26 26 27 27
16 16 16 17 17 16 17 17 15 13 12 11 11 12 13 13 13 15 15 14 14 15 15 15 16 16 16 17 17 17 18 18 17 17 17 17 17 18 18 18 17 16 16 16 15 15 15 15 15 16 16 16 16 16 16 16 16 17 17 17 18 18 18 18 19 20 21 21 22 22 23 23 24 25 25 26 27 27 27 27 28 28 27 27 28 28
17 16 17 18 18 17 17 17 15 12 11 12 11 12 12 13 14 16 16 15 15 15 15 15 15 15 15 16 16 15 16 17 17 17 17 17 17 18 18 18 18 18 18 18 18 18 18 17 18 18 18 18 18 18 18 17 17 18 18 18 19 19 19 20 21 22 23 24 24 25 26 26 27 28 28 29 29 29 29 30 30 30 30 30 30 30
15 16 17 19 19 18 17 17 14 11 12 13 12 12 13 14 15 15 14 14 15 15 15 15 15 15 16 16 16 15 15 16 17 17 16 17 17 18 18 18 19 19 19 19 20 20 21 21 21 21 21 22 22 22 21 21 21 21 21 22 22 23 23 24 25 26 27 27 28 29 29 30 30 31 31 32 32 32 32 32 32 32 32 32 32 32
13 14 16 18 18 18 18 18 15 13 13 14 13 13 14 15 15 15 14 14 15 14 13 14 14 15 15 15 15 15 16 16 17 17 17 17 18 18 19 19 19 20 21 21 22 22 23 24 24 24 24 25 25 26 26 26 26 26 26 26 27 27 28 29 30 30 31 31 32 32 32 32 33 33 34 34 34 33 33 33 33 33 33 33 33 34
12 14 14 13 14 16 17 17 16 13 14 15 14 14 14 14 14 15 15 15 15 14 14 14 14 14 15 15 15 15 17 18 18 18 18 18 19 19 20 20 21 22 22 23 23 24 25 26 26 26 27 27 27 28 29 29 30 30 30 30 31 31 32 32 33 33 34 34 34 34 35 35 35 35 35 35 35 35 34 34 34 34 34 34 34 35
13 14 14 12 12 14 15 14 14 13 13 14 14 13 13 13 13 14 15 15 15 15 15 15 15 15 16 16 16 17 17 19 20 20 20 20 21 21 22 22 23 23 24 25 25 26 27 27 28 28 29 29 29 30 30 31 31 32 33 33 34 34 35 35 35 36 36 36 37 37 37 37 37 36 36 36 36 36 36 36 36 36 36 36 36 36
13 14 14 12 12 13 12 12 13 13 12 12 12 13 13 13 14 14 14 15 16 15 15 16 17 17 17 18 18 19 19 20 21 21 22 23 23 23 24 25 25 26 27 27 28 28 29 30 30 31 31 31 31 32 33 33 34 35 35 36 36 36 37 37 37 38 38 38 38 38 38 38 38 38 38 38 38 38 38 38 38 38 38 39 38 38
13 14 15 14 14 13 12 13 14 14 13 13 13 13 13 14 14 14 14 15 16 16 16 17 18 18 19 19 20 20 21 21 22 23 23 24 25 25 26 26 27 28 29 29 30 30 31 32 32 33 33 33 34 34 35 35 36 37 37 38 38 38 38 39 39 39 39 40 40 40 40 40 40 40 40 40 40 40 40 40 40 41 41 41 41 41
13 14 14 14 15 15 15 14 14 14 15 15 15 15 15 15 15 16 15 16 16 17 17 18 18 18 19 19 20 21 21 22 22 23 24 25 25 26 26 27 28 29 29 30 31 31 32 33 33 34 34 35 35 36 36 37 38 38 39 39 39 39 40 40 40 40 41 41 41 41 41 41 41 41 41 41 42 42 42 42 42 43 43 42 43 43
10 12 12 12 13 14 14 14 14 14 15 15 15 16 16 16 16 16 16 16 16 17 17 18 18 19 19 20 20 21 22 22 22 23 24 25 26 26 27 27 28 29 30 30 31 32 32 33 34 35 35 36 36 37 37 38 38 38 39 39 40 40 40 41 41 41 41 41 41 41 41 42 42 42 43 43 44 44 44 44 45 45 45 44 44 44
9 10 10 10 10 11 12 13 14 14 15 15 15 15 16 16 16 16 16 16 17 17 17 18 18 18 19 20 21 21 22 22 23 23 25 25 26 26 27 28 29 29 30 31 31 32 32 33 34 35 36 36 36 37 38 38 38 39 39 40 40 40 41 41 41 41 41 41 41 41 42 42 42 43 43 44 44 45 45 46 46 46 46 45 44 43
8 8 8 9 10 10 11 11 11 12 13 14 14 14 15 16 16 16 17 17 17 18 18 19 19 19 19 20 21 22 22 23 23 24 25 25 26 26 27 28 29 29 30 30 31 32 32 33 33 34 35 35 36 36 36 37 37 38 38 39 39 40 40 41 41 41 41 41 41 42 42 42 43 43 44 44 45 45 45 45 46 46 46 45 44 43
7 7 7 7 8 8 9 10 10 10 11 11 12 12 13 14 15 16 17 17 18 19 19 20 20 21 21 21 21 21 22 23 23 24 24 25 25 26 27 27 28 28 29 30 30 31 31 32 32 33 33 34 34 35 35 36 36 37 37 38 38 39 40 40 40 40 41 41 41 42 42 42 43 43 43 44 44 44 44 44 44 44 45 46 46 45
Wind_Direction
219 224 225 225 226 224 223 223 226 237 246 241 233 224 222 226 222 221 222 216 216 220 222 225 229 229 230 232 230 225 229 233 231 229 227 227 229 231 232 230 228 229 228 228 229 230 232 233 233 232 229 226 226 220 210 206 210 213 212 207 205 203 201 200 197 193 191 190 190 191 194 196 196 198 203 214 233 255 278 302 315 318 319 315 309 301
221 226 225 224 227 227 223 224 229 239 241 235 234 228 221 224 223 216 215 214 217 224 226 226 230 232 229 232 231 225 229 234 231 229 227 227 229 230 231 228 226 227 226 223 225 228 228 229 228 227 227 224 223 219 209 207 209 210 209 203 200 202 202 198 194 193 195 192 190 193 196 196 198 205 212 225 248 267 278 287 297 306 312 313 310 304
223 227 226 223 225 226 222 224 229 232 230 228 231 231 224 220 219 212 210 216 219 223 229 230 231 232 231 232 228 223 231 234 230 230 228 227 228 228 228 226 223 223 222 220 221 224 224 224 224 225 227 223 222 220 209 207 209 209 208 202 199 201 199 194 194 195 196 190 189 192 196 201 205 210 220 237 257 273 279 283 288 296 304 310 310 304
223 227 225 222 220 221 223 226 229 228 226 226 226 228 225 218 216 217 219 225 226 226 231 234 234 234 232 229 225 227 233 233 230 229 227 226 226 226 225 224 222 219 219 219 220 222 222 222 223 224 226 221 218 216 208 206 208 207 204 200 200 200 196 194 194 194 193 189 187 189 194 203 209 215 228 244 262 273 277 282 285 291 301 307 308 305
228 225 217 216 217 220 224 225 225 226 224 224 224 225 225 220 219 224 225 224 225 228 231 235 238 235 228 225 227 230 231 229 227 226 224 223 223 224 223 221 220 217 217 219 219 221 221 221 222 223 224 220 217 214 206 205 208 206 203 202 201 197 194 193 193 193 193 190 189 193 198 204 209 218 230 244 260 269 274 280 282 287 295 301 303 304
229 221 212 217 220 221 224 223 220 222 223 223 223 224 227 227 224 222 219 219 224 229 226 227 237 235 225 224 226 225 224 224 223 221 221 220 220 220 220 218 216 214 217 220 220 222 220 218 221 222 225 225 219 213 206 206 209 206 204 202 195 192 192 193 196 199 198 197 202 205 204 207 213 220 230 241 251 260 270 277 281 285 289 293 296 299
225 219 219 224 225 221 222 223 220 218 223 226 220 218 225 232 230 222 218 220 227 233 221 219 231 235 223 223 220 217 219 219 218 219 219 219 219 218 217 215 214 214 218 221 223 222 219 217 223 226 230 231 222 212 207 208 210 207 204 200 195 195 197 197 201 204 203 207 212 212 211 213 216 220 228 238 246 255 264 270 277 281 284 288 290 292
222 222 223 221 221 220 221 223 219 214 220 227 217 212 218 226 228 225 225 225 229 237 226 219 228 233 227 222 213 210 215 215 215 218 218 219 219 217 215 212 212 215 219 222 223 221 218 220 227 231 234 233 226 219 213 209 210 208 203 200 200 202 201 200 203 206 207 213 214 215 218 219 219 221 226 235 245 252 258 265 272 276 280 287 287 288
222 225 222 217 217 218 220 222 217 212 218 224 217 211 215 222 224 224 227 229 230 235 233 225 224 228 229 220 207 205 213 214 213 215 219 220 217 215 213 211 213 217 221 223 220 217 217 221 226 228 228 224 218 217 214 206 207 209 204 200 200 203 204 205 208 210 213 217 218 221 224 224 225 227 230 238 244 248 252 258 265 271 278 286 287 287
222 223 220 215 213 216 220 221 212 209 213 218 217 214 215 221 224 224 226 228 229 233 236 229 219 221 223 209 203 210 217 215 213 216 219 217 215 214 212 210 213 218 221 222 217 215 218 222 225 223 220 216 211 214 212 203 203 205 200 195 195 201 206 209 211 214 217 219 221 224 226 227 228 229 233 237 241 246 249 252 258 267 275 281 284 285
228 220 217 212 211 218 221 215 209 209 211 215 218 216 215 219 222 224 226 226 228 231 235 227 217 221 222 210 213 221 220 214 214 218 218 214 213 215 214 212 213 217 222 222 218 217 219 222 224 220 215 212 211 215 211 203 202 199 197 199 201 205 210 214 215 216 219 221 223 225 227 228 229 231 234 233 237 244 245 249 256 265 274 279 281 283
229 222 218 214 216 225 224 215 214 215 215 218 220 216 214 215 218 221 222 223 227 231 231 224 217 220 223 219 219 214 207 209 217 218 215 211 211 213 215 215 213 216 220 220 219 217 217 221 223 219 214 212 214 217 215 210 205 201 203 208 209 211 215 219 222 222 222 224 227 228 229 229 231 233 233 232 235 239 241 247 254 261 270 275 277 280
226 222 216 214 218 221 222 217 212 212 215 216 217 217 215 213 215 220 220 221 226 230 229 222 215 218 219 213 210 201 196 206 214 210 206 205 205 209 213 214 215 215 216 218 216 216 220 222 221 220 218 216 217 218 216 213 210 209 211 212 211 216 219 221 223 224 225 228 230 231 232 233 235 235 234 234 237 241 245 250 253 258 263 266 269 272
221 221 215 214 215 215 218 217 207 207 212 213 214 216 216 213 217 223 222 223 226 225 222 218 216 219 215 206 205 203 204 210 209 204 205 207 209 214 216 215 215 214 214 217 218 221 225 225 223 223 224 223 221 219 219 220 219 218 217 216 216 220 222 223 223 225 228 231 232 235 236 237 237 237 236 237 241 244 247 250 254 259 260 259 259 260
219 220 215 214 213 210 214 219 217 212 210 213 217 220 220 218 220 227 228 228 231 225 215 214 220 224 221 214 211 215 219 217 212 207 207 209 211 216 217 215 214 214 217 220 221 226 231 230 227 226 229 231 228 224 223 224 225 225 223 223 223 223 223 225 227 230 233 234 236 237 238 237 236 235 235 238 244 246 247 251 255 258 258 253 250 251
224 226 218 215 216 212 212 217 222 221 214 213 217 220 222 222 224 230 232 229 235 234 219 215 223 226 222 221 219 221 223 215 210 208 205 205 207 208 212 214 213 216 220 220 221 226 231 232 232 231 232 234 231 229 228 228 230 231 231 230 229 228 228 230 234 236 237 238 239 236 235 236 233 231 234 239 242 244 247 252 254 255 252 245 243 244
225 229 218 211 214 216 215 215 218 222 221 215 218 222 223 225 230 234 231 221 224 235 228 221 226 223 218 222 218 215 215 208 207 211 211 212 212 213 217 218 218 219 221 221 224 228 228 231 235 235 236 236 234 234 233 232 233 234 235 234 233 233 234 236 239 240 239 240 238 233 232 233 230 230 235 238 239 242 246 250 250 248 243 236 235 236
225 230 217 208 213 217 218 222 223 224 224 221 220 222 223 225 230 234 234 223 220 229 231 226 226 223 222 225 216 210 210 207 207 212 214 218 219 220 224 224 224 225 224 224 227 228 227 231 236 237 238 239 238 238 237 235 235 237 237 235 234 236 237 239 241 241 241 240 236 231 228 229 230 232 235 236 237 240 241 243 242 240 235 229 225 227
224 229 222 213 218 219 217 225 228 225 225 228 230 226 223 227 228 228 232 231 227 231 233 229 228 231 234 227 213 211 211 209 210 213 216 218 220 223 226 227 228 227 226 228 228 228 230 233 237 239 238 238 239 240 238 237 238 240 238 236 237 239 239 240 241 241 241 238 233 229 226 228 231 232 232 233 234 235 235 233 232 231 228 224 223 225
223 228 224 217 220 220 217 222 226 224 222 226 233 230 225 230 232 230 231 232 233 233 233 231 229 233 236 226 215 212 211 211 212 213 217 219 220 223 226 228 231 230 229 232 232 233 233 233 237 240 239 238 239 240 239 237 238 241 241 238 240 243 243 242 241 240 238 233 229 227 227 229 230 228 228 229 229 229 228 226 224 227 228 227 229 233
222 225 226 222 222 221 221 223 224 225 223 223 227 228 226 228 231 234 235 233 234 235 234 233 229 227 230 230 221 211 210 214 212 211 216 218 219 224 227 230 233 233 233 234 235 235 235 235 236 237 237 236 238 239 240 240 241 242 242 242 243 244 243 241 239 238 235 230 227 226 226 227 226 225 224 224 224 224 223 223 225 231 234 233 234 238
223 224 226 226 224 224 227 227 225 226 229 227 225 227 229 229 229 234 236 233 234 238 238 236 232 228 230 233 224 216 219 221 215 213 216 216 217 221 225 227 229 230 231 231 233 236 237 236 235 235 236 236 237 240 242 243 244 244 243 243 244 243 241 238 237 234 230 226 225 224 223 223 223 223 224 225 225 224 224 228 231 235 238 238 238 241
226 227 229 229 228 229 231 231 228 227 231 233 231 228 228 229 231 235 237 236 237 240 241 241 239 230 227 230 227 224 224 219 215 216 215 213 215 216 216 219 220 221 223 225 229 235 236 232 231 234 238 239 240 241 242 243 244 243 241 237 236 235 234 233 230 226 223 221 221 222 221 223 226 228 229 230 228 227 229 232 234 236 239 240 241 242
224 227 233 234 234 235 233 232 232 231 231 233 233 230 229 230 231 234 237 238 240 241 239 240 240 230 226 231 228 221 217 213 213 215 213 213 214 213 213 214 216 218 221 223 226 228 227 225 228 232 234 237 240 240 240 241 238 234 231 227 225 226 226 224 221 217 216 217 219 221 224 226 230 232 232 232 232 231 232 233 234 236 239 241 243 243
224 226 230 233 234 234 229 228 230 229 230 232 232 232 233 233 233 236 236 235 238 239 236 238 238 229 226 229 224 215 211 211 212 213 214 215 215 215 215 214 214 216 216 217 217 217 217 219 223 227 229 232 235 236 239 241 233 226 223 219 219 221 220 219 217 215 216 220 221 223 224 226 229 231 231 231 232 232 232 234 236 237 239 242 243 244
227 228 230 232 233 231 229 233 238 235 231 231 231 233 236 234 234 237 236 235 239 240 239 241 234 221 222 220 214 212 210 210 212 213 215 216 213 212 212 210 209 209 208 209 209 210 211 214 216 219 224 227 228 230 234 236 233 227 224 219 216 218 219 218 219 218 220 224 226 227 227 227 229 231 231 231 232 233 233 235 237 238 239 242 243 245
228 230 232 234 233 234 240 252 258 250 238 232 230 233 236 235 234 237 237 238 240 240 244 242 221 207 211 210 207 211 212 212 214 214 213 212 209 207 208 208 207 206 207 209 211 213 213 214 214 214 217 222 226 229 230 229 228 227 224 222 220 221 222 222 222 222 224 227 229 230 231 231 232 233 233 233 234 234 235 237 237 238 240 243 244 247
228 228 228 231 232 235 241 248 258 259 248 237 232 231 234 233 232 233 235 238 240 241 242 233 210 204 207 206 205 209 213 215 215 212 208 207 205 205 208 209 208 209 210 212 216 219 218 218 219 218 219 221 225 229 231 230 230 228 225 224 225 226 227 228 228 228 228 230 232 234 236 237 237 236 236 237 237 237 238 239 240 240 242 245 246 248
229 228 226 229 232 235 239 241 246 254 252 240 231 231 234 233 230 229 233 238 239 236 228 215 206 206 206 207 208 210 211 213 213 210 208 207 208 208 209 210 210 212 213 214 218 222 222 221 221 221 222 222 222 225 230 231 230 229 228 227 229 230 230 231 231 231 232 232 234 237 240 241 241 241 241 241 241 241 241 242 244 244 246 248 249 250
231 230 229 233 235 236 240 242 240 244 249 242 234 234 236 231 225 225 228 231 228 223 215 208 204 202 206 214 217 215 212 209 210 211 211 211 211 210 210 211 212 214 216 216 218 222 223 222 221 222 223 224 225 226 228 229 228 229 230 230 230 230 230 232 234 235 235 235 235 237 240 241 243 244 244 243 244 245 244 246 247 247 249 250 251 252
233 234 230 232 237 238 241 245 243 241 244 244 242 244 243 235 227 226 228 227 221 216 212 209 207 210 219 223 220 217 214 210 211 212 212 214 215 213 213 214 214 216 218 217 218 221 223 223 224 225 226 229 232 231 230 231 230 230 230 230 231 232 232 233 235 237 238 239 239 240 242 244 247 248 247 247 248 250 250 250 251 251 252 253 253 254
233 236 232 231 238 241 239 241 242 240 242 245 246 247 246 240 233 228 227 228 227 220 215 213 216 221 224 221 216 213 209 206 209 212 212 216 219 217 216 216 216 218 218 218 220 222 224 226 228 229 230 231 233 232 232 231 231 231 231 234 237 238 238 238 237 238 241 243 245 246 247 249 251 253 253 253 255 256 256 256 255 255 255 255 255 254
230 233 233 232 238 243 237 233 233 235 239 243 242 241 239 236 234 229 225 227 231 231 228 223 221 220 218 216 213 210 211 213 218 223 221 219 221 221 218 215 215 218 221 223 225 226 228 231 234 236 238 237 237 236 235 234 235 237 238 240 241 241 242 243 243 244 247 248 250 251 252 253 254 255 256 258 259 260 260 260 259 259 259 257 255 254
231 232 236 237 240 244 237 226 228 234 238 239 238 235 235 236 235 232 228 227 230 233 231 225 220 216 214 216 216 215 219 224 226 231 231 226 225 226 225 223 222 225 231 234 234 233 234 237 240 242 243 243 244 244 243 242 242 242 243 245 245 245 245 246 247 250 252 253 254 255 256 257 257 258 259 260 261 261 261 263 263 262 260 257 256 256
230 232 237 239 241 241 231 224 232 239 240 238 236 234 233 233 230 228 231 234 233 230 228 225 224 221 217 218 218 215 215 219 225 231 235 233 230 228 230 233 235 237 239 242 243 243 243 245 247 248 248 247 245 245 247 248 247 246 245 246 246 247 248 249 251 254 256 257 258 258 259 260 261 261 262 263 263 263 263 264 264 262 260 260 261 262
231 231 235 239 239 232 225 227 235 238 235 234 233 231 228 225 222 224 230 234 233 230 229 229 230 228 224 220 218 214 212 214 222 229 231 233 233 232 233 235 238 241 243 244 247 249 250 249 249 250 251 251 251 251 252 253 252 251 250 250 249 249 249 251 252 255 258 260 261 262 263 263 263 264 265 265 266 266 266 266 265 264 264 265 265 265
236 234 236 239 238 231 230 233 234 234 235 232 229 230 232 229 228 229 227 227 230 229 225 225 225 224 223 221 219 217 216 219 225 228 225 225 228 231 234 235 236 239 241 242 245 248 248 247 246 248 249 250 252 254 254 254 255 254 253 253 253 252 252 254 255 257 260 261 262 263 264 264 265 266 266 266 266 267 267 268 268 268 268 267 266 266
238 237 236 238 236 236 241 241 237 238 240 235 230 234 238 237 237 235 227 224 229 228 221 220 220 219 220 222 221 222 226 231 236 235 230 227 228 231 234 235 236 238 240 242 244 247 247 247 247 248 250 251 252 254 255 255 256 256 255 254 254 253 254 256 259 260 262 263 264 264 264 265 266 267 267 267 268 268 268 269 270 270 270 269 267 266
241 239 237 238 239 241 246 246 245 245 244 238 236 238 238 236 236 234 228 225 226 225 220 218 217 216 218 219 221 227 234 238 237 236 234 234 236 238 239 240 242 245 247 249 249 250 250 249 249 250 253 255 257 257 258 256 255 254 254 254 254 254 255 259 262 263 264 265 266 266 266 266 267 268 269 269 270 270 270 270 269 269 269 269 268 266
243 243 241 241 242 244 246 247 247 245 242 242 243 243 240 238 236 234 229 224 221 221 220 218 218 220 222 223 228 237 241 238 234 233 235 237 240 242 244 245 247 250 252 254 255 255 254 254 255 256 258 259 261 261 260 258 256 255 255 256 256 256 258 261 263 264 266 266 267 267 268 268 269 270 270 271 271 271 271 270 269 268 267 267 266 265
243 244 243 243 244 246 249 249 246 240 241 246 245 243 242 240 237 236 232 225 222 221 220 221 224 226 227 229 234 238 236 233 232 233 237 240 243 245 247 249 250 253 255 257 258 259 259 259 259 260 261 261 261 261 261 260 260 259 259 259 259 259 261 263 264 265 266 267 267 268 269 270 270 270 270 271 272 271 270 269 268 267 266 266 265 265
248 247 245 245 245 245 246 246 243 240 247 252 248 244 246 243 238 236 233 228 227 227 227 228 230 230 230 232 235 234 230 230 233 236 240 244 246 249 251 253 255 256 258 259 260 261 262 262 261 262 262 262 262 262 262 262 262 261 261 261 262 263 264 266 267 268 268 268 268 269 269 270 270 270 270 270 271 271 270 269 268 267 266 265 265 265
253 252 249 248 247 246 245 243 242 243 248 251 247 243 246 244 238 234 231 229 230 232 233 234 236 237 237 237 238 237 235 236 239 242 246 249 252 253 255 257 258 258 259 260 261 262 263 263 262 263 264 263 263 263 264 264 264 263 263 264 266 266 267 268 269 269 269 269 269 270 270 270 270 270 269 269 269 269 269 268 268 267 266 265 265 265
254 254 252 251 250 251 248 243 241 243 246 248 245 241 240 238 234 231 231 231 232 234 237 240 242 243 243 242 242 243 244 245 247 251 254 256 258 259 259 260 261 261 262 263 263 264 265 265 265 266 266 266 266 267 267 267 267 267 267 268 269 269 269 270 270 270 270 270 270 270 270 269 269 268 268 268 268 268 268 268 267 267 266 265 265 264
253 252 251 251 250 251 249 242 240 242 245 247 245 239 236 237 237 236 237 236 237 240 242 243 245 247 247 247 247 249 251 253 254 255 258 259 260 261 262 262 263 264 265 265 265 267 268 268 268 268 268 268 269 269 269 269 269 269 269 269 270 270 270 270 271 271 271 270 270 270 269 269 269 268 267 267 267 267 267 267 267 266 266 265 265 264
250 251 252 249 245 246 248 245 242 243 244 245 244 241 240 241 240 240 241 242 243 247 248 248 249 251 252 252 253 254 256 258 258 258 260 260 261 262 262 263 264 265 266 267 267 268 269 270 269 269 269 270 270 270 270 270 270 270 270 270 270 270 270 270 271 271 271 270 270 270 270 270 269 269 268 267 266 266 266 266 266 266 265 265 264 264
251 253 251 246 244 247 248 245 243 242 242 243 244 244 244 245 243 244 246 247 248 250 251 252 252 253 253 255 257 258 259 259 260 262 262 262 263 264 264 266 267 267 268 268 269 269 270 270 270 270 271 272 272 272 272 271 271 271 271 271 271 271 271 271 271 271 271 271 271 271 270 270 269 269 269 268 267 266 266 265 265 265 264 264 264 263
254 252 249 247 248 247 244 240 240 241 241 243 245 245 246 246 246 247 248 248 248 250 251 253 254 256 256 258 259 260 260 261 262 264 265 265 265 266 267 268 269 270 270 270 271 271 272 272 272 272 273 273 273 273 273 273 273 273 273 273 273 273 273 273 272 272 272 272 272 271 271 270 270 269 269 268 267 266 266 265 265 264 263 263 263 262
256 253 250 247 243 241 237 236 237 239 241 242 244 245 245 246 246 245 246 247 248 250 252 253 255 256 258 260 261 261 261 262 263 266 267 267 268 269 270 271 272 272 273 273 273 274 274 274 274 274 275 275 274 274 274 274 274 275 275 275 274 274 274 274 273 273 273 272 271 271 270 270 269 269 268 268 267 267 266 265 265 264 263 262 262 261
255 256 253 245 241 241 237 232 236 243 244 242 242 244 245 247 247 248 249 251 253 254 256 257 257 258 259 261 263 263 264 264 266 268 269 269 270 272 273 274 274 275 275 275 276 276 276 276 276 276 276 276 276 276 276 275 276 276 275 275 275 275 274 274 274 273 273 272 272 271 271 271 270 270 269 269 268 267 267 266 265 263 263 262 261 261
257 259 256 249 246 243 232 228 239 250 245 238 239 243 245 247 249 250 252 255 256 258 260 262 263 264 264 264 264 266 268 269 271 272 272 273 274 275 276 277 277 277 278 278 277 277 277 277 277 277 277 277 277 277 277 277 277 277 277 276 276 275 275 275 275 275 274 273 273 272 272 272 271 271 270 270 269 268 268 267 265 263 262 261 261 260